Regional Weather Roundup
Issued by NWS Little Rock, AR

Home | Current Version | Previous Version | Text Only | Print | Product List | Glossary Off
Versions: 1 2 3 4 5 6 7 8 9 10 11 12 13 14 15 16 17 18 19 20 21 22 23 24 25 26 27 28 29 30 31 32 33 34 35 36 37 38 39 40 41 42 43 44 45 46 47 48 49 50

983
ASUS44 KLZK 110005
RWRLZK

WEATHER ROUNDUP FOR ARKANSAS
NATIONAL WEATHER SERVICE LITTLE ROCK AR
600 PM CST WED FEB 10 2016

NOTE: "FAIR" INDICATES FEW OR NO CLOUDS BELOW 12,000 FEET WITH NO
SIGNIFICANT WEATHER AND/OR OBSTRUCTIONS TO VISIBILITY.

ARZ001-003-010-029-110100-
NORTHWEST ARKANSAS

CITY           SKY/WX    TMP DP  RH WIND       PRES   REMARKS
FAYETTEVILLE   CLEAR     50  26  39 SW6       29.98R
6HR MIN TEMP:  42; 6HR MAX TEMP:  54;

FORT SMITH     CLEAR     58  25  28 SW6       30.00R
6HR MIN TEMP:  44; 6HR MAX TEMP:  62;

HARRISON       CLEAR     49  20  31 SW6       29.97R
6HR MIN TEMP:  37; 6HR MAX TEMP:  55;

BENTONVILLE    CLEAR     50  21  32 SW7       29.98R
ROGERS         CLEAR     49  24  37 SW7       29.97S
6HR MIN TEMP:  41; 6HR MAX TEMP:  53;

SILOAM SPGS    CLEAR     52  25  35 SW10      29.98S
6HR MIN TEMP:  41; 6HR MAX TEMP:  55;

SPRINGDALE     CLEAR     50  23  34 SW7       29.99S
$$

ARZ004-005-016-110100-
NORTH CENTRAL ARKANSAS

CITY           SKY/WX    TMP DP  RH WIND       PRES   REMARKS
BATESVILLE     CLEAR     45  16  31 S7        30.05F
6HR MIN TEMP:  37; 6HR MAX TEMP:  48;

FLIPPIN        CLEAR     46  18  31 S3        29.97R
6HR MIN TEMP:  37; 6HR MAX TEMP:  52;

MTN HOME       CLEAR     45  18  34 SE6       29.97F HAZE
6HR MIN TEMP:  35; 6HR MAX TEMP:  49;

$$

ARZ040-041-110100-
WEST CENTRAL ARKANSAS

CITY           SKY/WX    TMP DP  RH WIND       PRES   REMARKS
MENA           CLEAR     55  30  38 SW7G17    30.05F
MOUNT IDA      CLEAR     55  27  34 VRB5      30.02F
6HR MIN TEMP:  46; 6HR MAX TEMP:  58;

$$

ARZ009-017-025-026-028-110100-
NORTHEAST ARKANSAS

CITY           SKY/WX    TMP DP  RH WIND       PRES   REMARKS
JONESBORO      CLEAR     34  17  50 E6        30.10F WCI  29
6HR MIN TEMP:  30; 6HR MAX TEMP:  38;

NEWPORT        CLEAR     38  21  50 S10       30.09F
6HR MIN TEMP:  37; 6HR MAX TEMP:  44;

WALNUT RIDGE   CLEAR     36  14  41 SE9       30.09S
6HR MIN TEMP:  32; 6HR MAX TEMP:  39;

BLYTHEVILLE    CLOUDY    35  11  36 SE5       30.15S WCI  31
6HR MIN TEMP:  32; 6HR MAX TEMP:  41;

$$

ARZ022-023-033-042-044-110100-
CENTRAL ARKANSAS

CITY           SKY/WX    TMP DP  RH WIND       PRES   REMARKS
LITTLE ROCK    CLEAR     50  22  33 S9        30.07F
6HR MIN TEMP:  42; 6HR MAX TEMP:  54;

N LITTLE ROCK  CLEAR     50  25  36 S6        30.07F
6HR MIN TEMP:  40; 6HR MAX TEMP:  52;

JACKSONVILLE   CLEAR     48  22  35 SE3       30.05F
6HR MIN TEMP:  40; 6HR MAX TEMP:  53;

SEARCY         CLEAR     41  22  46 SE6       30.08F
6HR MIN TEMP:  39; 6HR MAX TEMP:  48;

HOT SPRINGS    CLEAR     53  26  35 SW7       30.06F
6HR MIN TEMP:  44; 6HR MAX TEMP:  57;

RUSSELLVILLE   CLEAR     45  26  47 CALM      30.00F
6HR MIN TEMP:  38; 6HR MAX TEMP:  55;

CLINTON          N/A     46  19  34 CALM      30.03F
$$

ARZ036-110100-
EAST ARKANSAS

CITY           SKY/WX    TMP DP  RH WIND       PRES   REMARKS
WEST MEMPHIS   CLEAR     36  20  52 S6        30.13S
6HR MIN TEMP:  34; 6HR MAX TEMP:  42;

$$

ARZ050-053-066-070-073-110100-
SOUTHWEST ARKANSAS

CITY           SKY/WX    TMP DP  RH WIND       PRES   REMARKS
ARKADELPHIA    FAIR      52  29  41 SW7       30.09F
6HR MIN TEMP:  48; 6HR MAX TEMP:  57;

CAMDEN         CLEAR     55  25  30 SW6       30.11F
TEXARKANA      CLEAR     58  31  35 SW7       30.10F
6HR MIN TEMP:  49; 6HR MAX TEMP:  62;

EL DORADO      CLEAR     52  28  39 S6        30.13F
6HR MIN TEMP:  46; 6HR MAX TEMP:  59;

DE QUEEN       CLEAR     58  32  37 S6        30.06F
6HR MIN TEMP:  47; 6HR MAX TEMP:  61;

$$

ARZ056-057-069-110100-
SOUTHEAST ARKANSAS

CITY           SKY/WX    TMP DP  RH WIND       PRES   REMARKS
PINE BLUFF     CLEAR     49  23  36 S7        30.09F
6HR MIN TEMP:  42; 6HR MAX TEMP:  54;

STUTTGART      CLEAR     45  27  49 SE6       30.10S
6HR MIN TEMP:  39; 6HR MAX TEMP:  52;

MONTICELLO     CLEAR     52  23  32 SW5       30.11F
6HR MIN TEMP:  45; 6HR MAX TEMP:  56;


$$






USA.gov is the U.S. government's official web portal to all federal, state and local government web resources and services.